Weather History for Beatrice, NE

Change the Weather History Date:

Tuesday, September 4, 2012

  Actual Average Record
Temperature  
Mean Temperature 83 °F -  
Max Temperature 101 °F 83 °F 101 °F (2012)
Min Temperature 65 °F 61 °F 42 °F (1974)
Cooling Degree Days 18    
Growing Degree Days 33 (Base 50)    
Moisture  
Dew Point 62 °F    
Average Humidity 57    
Maximum Humidity 96    
Minimum Humidity 22    
Precipitation  
Precipitation 0.00 in - - ()
Sea Level Pressure  
Sea Level Pressure 29.84 in    
Wind  
Wind Speed 5 mph (South)    
Max Wind Speed 24 mph    
Max Gust Speed 30 mph    
Visibility 9 miles    
Events      
Averages and records for this station are not official NWS values.
T = Trace of Precipitation, MM = Missing Value Source: NWS Daily Summary

Daily Weather History Graph

Daily Weather History Graph

Search for Another Location

Airport:

Trip Planner

Search our weather history database for the weather conditions in past years. The results will help you decide how hot, cold, wet, or windy it might be!

Date:

Astronomy

Sep. 04, 2012 Rise Set
Actual Time 6:57 AM CDT 7:53 PM CDT
Civil Twilight 6:30 AM CDT 8:20 PM CDT
Nautical Twilight 5:57 AM CDT 8:53 PM CDT
Astronomical Twilight 5:22 AM CDT 9:27 PM CDT
Moon 9:46 PM CDT (9/4) 11:06 AM CDT (9/4)
Length of Visible Light 13h 50m
Length of Day
12h 55m
Waning Gibbous, 83% of the Moon is Illuminated
Sep 4
Waning Gibbous
Sep 8
Last Quarter
Sep 15
New
Sep 22
First Quarter
Sep 29
Full

Hourly Weather History & Observations

Time (CDT) Temp. Heat Index Dew Point Humidity Pressure Visibility Wind Dir Wind Speed Gust Speed Precip Events Conditions
12:15 AM 77.7 °F - 70.5 °F 78% 29.87 in 10.0 mi SSE 6.9 mph - N/A   Clear
12:35 AM 76.5 °F - 69.8 °F 80% 29.88 in 10.0 mi Calm Calm - N/A   Clear
12:55 AM 75.7 °F - 69.3 °F 80% 29.87 in 10.0 mi SSE 4.6 mph - N/A   Clear
1:15 AM 75.0 °F - 68.9 °F 81% 29.87 in 10.0 mi Calm Calm - N/A   Clear
1:35 AM 72.3 °F - 67.8 °F 86% 29.87 in 10.0 mi Calm Calm - N/A   Clear
1:55 AM 72.1 °F - 67.8 °F 86% 29.86 in 10.0 mi Calm Calm - N/A   Clear
2:15 AM 70.7 °F - 67.1 °F 88% 29.87 in 10.0 mi SSW 3.5 mph - N/A   Clear
2:35 AM 70.9 °F - 67.8 °F 90% 29.87 in 10.0 mi Calm Calm - N/A   Clear
2:55 AM 70.3 °F - 67.3 °F 90% 29.87 in 10.0 mi SW 3.5 mph - N/A   Clear
3:15 AM 70.5 °F - 68.0 °F 92% 29.87 in 10.0 mi Calm Calm - N/A   Clear
3:35 AM 67.6 °F - 64.8 °F 90% 29.88 in 10.0 mi Calm Calm - N/A   Clear
3:55 AM 68.9 °F - 66.6 °F 92% 29.88 in 10.0 mi Calm Calm - N/A   Clear
4:15 AM 68.0 °F - 66.0 °F 93% 29.88 in 10.0 mi South 3.5 mph - N/A   Clear
4:35 AM 66.2 °F - 64.4 °F 94% 29.87 in 10.0 mi Calm Calm - N/A   Clear
4:55 AM 66.6 °F - 64.8 °F 94% 29.88 in 7.0 mi Calm Calm - N/A   Clear
5:15 AM 66.2 °F - 64.8 °F 95% 29.88 in 7.0 mi Calm Calm - N/A   Clear
5:35 AM 66.2 °F - 64.4 °F 94% 29.88 in 7.0 mi Calm Calm - N/A   Clear
5:55 AM 65.7 °F - 64.0 °F 94% 29.88 in 7.0 mi Calm Calm - N/A   Clear
6:15 AM 65.5 °F - 64.0 °F 95% 29.88 in 7.0 mi Calm Calm - N/A   Clear
6:35 AM 65.5 °F - 63.9 °F 94% 29.89 in 4.0 mi ENE 3.5 mph - N/A   Clear
6:55 AM 65.3 °F - 64.0 °F 96% 29.90 in 5.0 mi Calm Calm - N/A   Clear
7:15 AM 66.0 °F - 64.6 °F 95% 29.90 in 3.0 mi ENE 3.5 mph - N/A   Clear
7:35 AM 66.0 °F - 64.8 °F 96% 29.91 in 5.0 mi Calm Calm - N/A   Clear
7:55 AM 68.0 °F - 66.6 °F 95% 29.91 in 5.0 mi East 3.5 mph - N/A   Clear
8:15 AM 68.9 °F - 67.1 °F 94% 29.91 in 7.0 mi East 4.6 mph - N/A   Clear
8:35 AM 70.2 °F - 68.4 °F 94% 29.90 in 7.0 mi Calm Calm - N/A   Clear
8:55 AM 73.0 °F - 69.4 °F 88% 29.89 in 10.0 mi South 3.5 mph - N/A   Clear
9:15 AM 76.1 °F - 69.3 °F 79% 29.89 in 10.0 mi South 4.6 mph - N/A   Clear
9:35 AM 77.5 °F - 69.6 °F 76% 29.89 in 10.0 mi South 4.6 mph - N/A   Clear
9:55 AM 80.1 °F 83.2 °F 69.8 °F 71% 29.90 in 10.0 mi South 5.8 mph - N/A   Clear
10:15 AM 81.7 °F 85.1 °F 69.4 °F 66% 29.89 in 10.0 mi SSW 6.9 mph - N/A   Clear
10:35 AM 83.3 °F 86.9 °F 69.3 °F 62% 29.90 in 10.0 mi SSW 4.6 mph - N/A   Clear
10:55 AM 84.6 °F 88.2 °F 68.9 °F 59% 29.89 in 10.0 mi South 5.8 mph - N/A   Clear
11:15 AM 86.0 °F 89.7 °F 68.7 °F 56% 29.89 in 10.0 mi SSE 4.6 mph - N/A   Clear
11:35 AM 87.6 °F 91.5 °F 68.4 °F 53% 29.88 in 10.0 mi South 5.8 mph - N/A   Clear
11:55 AM 89.4 °F 92.7 °F 67.1 °F 48% 29.88 in 10.0 mi SSE 4.6 mph - N/A   Clear
12:15 PM 91.0 °F 93.4 °F 65.8 °F 43% 29.87 in 10.0 mi South 5.8 mph - N/A   Clear
12:35 PM 93.6 °F 96.4 °F 65.8 °F 40% 29.86 in 10.0 mi Calm Calm - N/A   Clear
12:55 PM 94.8 °F 96.2 °F 63.0 °F 35% 29.85 in 10.0 mi SE 8.1 mph - N/A   Clear
1:15 PM 95.7 °F 96.3 °F 61.7 °F 32% 29.85 in 10.0 mi South 8.1 mph - N/A   Clear
1:35 PM 97.2 °F 97.6 °F 61.2 °F 30% 29.84 in 10.0 mi South 11.5 mph - N/A   Clear
1:55 PM 99.0 °F 98.6 °F 58.8 °F 26% 29.84 in 10.0 mi South 11.5 mph 16.1 mph N/A   Clear
2:15 PM 99.3 °F 98.2 °F 57.0 °F 24% 29.83 in 10.0 mi South 9.2 mph - N/A   Clear
2:35 PM 100.4 °F 98.8 °F 55.0 °F 22% 29.82 in 10.0 mi SSW 9.2 mph 16.1 mph N/A   Clear
2:55 PM 99.9 °F 99.0 °F 56.8 °F 24% 29.82 in 10.0 mi South 12.7 mph 21.9 mph N/A   Clear
3:15 PM 100.0 °F 99.2 °F 57.0 °F 24% 29.81 in 10.0 mi South 11.5 mph - N/A   Clear
3:35 PM 100.8 °F 99.8 °F 56.8 °F 23% 29.80 in 10.0 mi South 9.2 mph - N/A   Clear
3:55 PM 100.9 °F 100.0 °F 56.8 °F 23% 29.80 in 10.0 mi South 10.4 mph - N/A   Clear
4:15 PM 101.3 °F 100.1 °F 55.9 °F 22% 29.80 in 10.0 mi SSW 11.5 mph 18.4 mph N/A   Clear
4:35 PM 101.1 °F 100.3 °F 56.8 °F 23% 29.79 in 10.0 mi South 11.5 mph 19.6 mph N/A   Clear
4:55 PM 100.4 °F 98.8 °F 55.4 °F 22% 29.78 in 10.0 mi South 13.8 mph 20.7 mph N/A   Clear
5:15 PM 100.9 °F 100.0 °F 56.3 °F 23% 29.78 in 10.0 mi South 15.0 mph 18.4 mph N/A   Clear
5:35 PM 99.9 °F 99.0 °F 57.4 °F 24% 29.78 in 10.0 mi South 15.0 mph 20.7 mph N/A   Clear
5:55 PM 99.0 °F 99.5 °F 60.3 °F 28% 29.77 in 10.0 mi South 15.0 mph - N/A   Clear
6:15 PM 98.1 °F 99.1 °F 61.3 °F 30% 29.77 in 10.0 mi South 13.8 mph 21.9 mph N/A   Clear
6:35 PM 97.3 °F 97.5 °F 60.1 °F 29% 29.76 in 10.0 mi South 11.5 mph - N/A   Clear
6:55 PM 95.0 °F 94.4 °F 59.2 °F 30% 29.76 in 10.0 mi South 8.1 mph - N/A   Clear
7:15 PM 92.7 °F 92.5 °F 60.3 °F 34% 29.75 in 10.0 mi SSE 8.1 mph - N/A   Clear
7:35 PM 91.4 °F 91.7 °F 62.1 °F 37% 29.77 in 10.0 mi South 8.1 mph - N/A   Clear
7:55 PM 90.9 °F 91.6 °F 63.0 °F 39% 29.78 in 10.0 mi South 10.4 mph - N/A   Clear
8:15 PM 90.0 °F 91.0 °F 63.5 °F 41% 29.78 in 10.0 mi South 8.1 mph - N/A   Clear
8:35 PM 88.7 °F 90.1 °F 64.0 °F 44% 29.78 in 10.0 mi SSE 6.9 mph - N/A   Clear
8:55 PM 88.0 °F 87.6 °F 59.9 °F 39% 29.80 in 10.0 mi SW 24.2 mph 29.9 mph N/A   Clear
9:15 PM 86.9 °F 84.9 °F 53.6 °F 32% 29.80 in 10.0 mi SW 19.6 mph 27.6 mph N/A   Clear
9:35 PM 87.3 °F - 51.3 °F 29% 29.77 in 10.0 mi SSW 19.6 mph 28.8 mph N/A   Clear
9:55 PM 86.0 °F - 50.0 °F 29% 29.78 in 10.0 mi SSW 18.4 mph 26.5 mph N/A   Scattered Clouds
10:15 PM 84.7 °F - 50.0 °F 30% 29.76 in 10.0 mi SW 9.2 mph - N/A   Clear
10:35 PM 82.9 °F - 50.0 °F 32% 29.76 in 10.0 mi SSW 10.4 mph - N/A   Clear
10:55 PM 82.9 °F - 49.6 °F 31% 29.77 in 10.0 mi SW 13.8 mph 21.9 mph N/A   Clear
11:15 PM 80.6 °F - 51.8 °F 37% 29.76 in 10.0 mi SW 9.2 mph - N/A   Clear
11:35 PM 77.7 °F - 53.1 °F 42% 29.76 in 10.0 mi WSW 3.5 mph - N/A   Clear
11:55 PM 77.0 °F - 53.6 °F 44% 29.75 in 10.0 mi SSE 10.4 mph - N/A   Clear